Flag for Belgium Weather past 2 weeks in Antwerp, Belgium

37 °F

Passing clouds.

Feels Like: 32 °F
Forecast: 37 / 46 °F
Wind: 7 mph from Northeast

Location: Antwerp / Deurne

Current Time: Oct 13, 2015 at 9:28:38 AM

Latest Report: Oct 13, 2015 at 8:50 AM

Visibility: 4 mi

Pressure: 30.04 "Hg

Humidity: 87%

Dew point: 34 °F

Location of AntwerpLocation

Historic Weather in Antwerp — Graph


Antwerp temperature yesterday

Maximum temperature yesterday: 52 °F (at 3:20 PM)
Minimum temperature yesterday: 36 °F (at 7:20 AM)
Average temperature yesterday: 43 °F

Past Weeks' High & Low Weather Summary

High66 °F (Oct 3, 2:20 PM)94% (Oct 5, 6:20 AM)30.66 "Hg (Oct 5, 6:20 AM)
Low36 °F (Oct 12, 7:20 AM)40% (Sep 30, 2:50 PM)29.53 "Hg (Oct 6, 3:20 PM)
Average53 °F76%30.12 "Hg
* Reported Sep 28 7:20 AM — Oct 13 7:50 AM, Antwerp, Weather by CustomWeather, © 2015

Note: Actual official high and low records may vary slightly from our data, if they occured in-between our weather recording intervals... More about our weather records


Antwerp weather history for previous 24 hours

Time TempWeatherWind HumidityBarometerVisibility
7:50 AM
Tue, Oct 13
37 °FPassing clouds.7 mph87%30.04 "Hg5 mi
7:20 AM37 °FPassing clouds.7 mph87%30.01 "Hg5 mi
6:50 AM39 °FPassing clouds.5 mph81%30.01 "Hg5 mi
6:20 AM39 °FClear.6 mph81%30.01 "Hg5 mi
5:50 AM39 °FClear.5 mph81%30.01 "Hg5 mi
5:20 AM39 °FClear.6 mph87%30.01 "Hg5 mi
4:50 AM39 °FClear.7 mph87%30.01 "Hg6 mi
4:20 AM39 °FOvercast.7 mph87%30.01 "Hg6 mi
3:50 AM39 °FPassing clouds.5 mph87%30.01 "Hg6 mi
3:20 AM39 °FPassing clouds.5 mph87%30.01 "Hg6 mi
2:50 AM41 °FOvercast.5 mph81%30.01 "HgN/A
2:20 AM41 °FOvercast.3 mph81%30.01 "HgN/A
1:50 AM41 °FClear.2 mph81%30.01 "Hg6 mi
1:20 AM39 °FClear.2 mph81%30.01 "Hg6 mi
12:50 AM39 °FClear.1 mph87%30.01 "Hg5 mi
12:20 AM39 °FClear.2 mph87%30.04 "Hg6 mi
11:50 PM
Mon, Oct 12
41 °FClear.2 mph81%30.04 "Hg5 mi
10:50 PM41 °FClear.2 mph81%30.04 "Hg6 mi
10:20 PM43 °FClear.2 mph81%30.04 "Hg6 mi
9:50 PM43 °FClear.3 mph81%30.04 "Hg6 mi
9:20 PM45 °FClear.6 mph81%30.04 "Hg10 mi
8:50 PM45 °FClear.3 mph81%30.04 "Hg10 mi
8:20 PM46 °FClear.2 mph76%30.04 "Hg10 mi
7:50 PM45 °FSunny.1 mph81%30.04 "Hg10 mi
7:20 PM46 °FSunny.No wind76%30.04 "Hg10 mi
6:50 PM50 °FSunny.2 mph67%30.04 "Hg10 mi
6:20 PM52 °FSunny.2 mph62%30.04 "Hg10 mi
5:50 PM52 °FPassing clouds.3 mph67%30.04 "HgN/A
5:20 PM52 °FSunny.2 mph62%30.04 "Hg10 mi
4:50 PM52 °FSunny.2 mph62%30.04 "Hg10 mi
4:20 PM52 °FSunny.2 mph62%30.04 "Hg10 mi
3:50 PM52 °FSunny.2 mph62%30.04 "Hg10 mi
3:20 PM52 °FPassing clouds.3 mph62%30.04 "HgN/A
2:50 PM50 °FSunny.2 mph62%30.04 "Hg10 mi
2:20 PM48 °FPassing clouds.3 mph66%30.07 "HgN/A
1:50 PM48 °FSunny.5 mph66%30.07 "Hg10 mi
1:20 PM48 °FPassing clouds.3 mph66%30.07 "HgN/A
12:50 PM46 °FPassing clouds.5 mph66%30.07 "HgN/A
12:20 PM45 °FPassing clouds.3 mph71%30.07 "HgN/A
11:50 AM43 °FSunny.5 mph76%30.07 "Hg10 mi
11:20 AM43 °FPassing clouds.6 mph71%30.07 "HgN/A
10:50 AM41 °FSunny.6 mph76%30.07 "Hg10 mi
10:20 AM41 °FSunny.6 mph76%30.07 "Hg10 mi
9:50 AM39 °FPassing clouds.5 mph81%30.07 "HgN/A
9:20 AM37 °FSunny.5 mph81%30.07 "Hg10 mi
Weather by CustomWeather, © 2015

See weather overviewHow to use our weather pages